Regional Weather Roundup
Issued by NWS

Home | Current Version | Previous Version | Text Only | Print | Product List | Glossary On
Versions: 1 2 3 4 5 6 7 8 9 10 11 12 13 14 15 16 17 18 19 20 21 22 23 24 25 26 27 28 29 30 31 32 33 34 35 36 37 38 39 40 41 42 43 44 45 46 47 48 49 50
000
ASUS43 KLMK 192210
RWRKY
KENTUCKY REGIONAL WEATHER ROUNDUP
NATIONAL WEATHER SERVICE LOUISVILLE KY
600 PM EDT FRI SEP 19 2014

NOTE "FAIR" INDICATES FEW OR NO CLOUDS BELOW 12,000 FEET
WITH NO SIGNIFICANT WEATHER AND/OR OBSTRUCTIONS TO VISIBILITY.

KYZ001>023-026-027-061>063-070>075-192300-
WESTERN AND SOUTH CENTRAL KENTUCKY

CITY           SKY/WX    TMP DP  RH WIND       PRES   REMARKS
PADUCAH        SUNNY     84  59  42 SE7       30.00F
HENDERSON      SUNNY     75  54  46 SE6       30.02S
OWENSBORO      SUNNY     81  57  43 S10       30.03S
HOPKINSVILLE   SUNNY     82  60  47 S5        30.02S
BOWLING GREEN  SUNNY     81  60  48 E5        30.04S
GLASGOW        MOSUNNY   81  56  41 CALM      30.04S
$$

KYZ024-025-028>034-038-045-046-053-192300-
NORTH CENTRAL KENTUCKY

CITY           SKY/WX    TMP DP  RH WIND       PRES   REMARKS
LOUISVILLE/SDF MOSUNNY   79  54  41 VRB3      30.05S
LOUISVILLE/LOU SUNNY     78  53  41 SE6       30.07R
FORT KNOX      MOSUNNY   76  58  52 NE6       30.05S
$$

KYZ035>037-039>044-047>052-055>060-089>105-192300-
NORTHEAST KENTUCKY

CITY           SKY/WX    TMP DP  RH WIND       PRES   REMARKS
LEXINGTON      SUNNY     77  56  48 SE6       30.08F
COVINGTON      MOSUNNY   74  48  39 E6        30.08F
FRANKFORT      SUNNY     76  54  46 E5        30.07F
$$

KYZ054-064>069-076>088-106>120-192300-
SOUTHEAST KENTUCKY

CITY           SKY/WX    TMP DP  RH WIND       PRES   REMARKS
JACKSON        SUNNY     75  62  64 CALM      30.10S
LONDON         MOSUNNY   79  58  48 S3        30.09S
SOMERSET       SUNNY     79  55  44 CALM      30.08S
MIDDLESBORO    SUNNY     80  59  49 CALM      30.09S
MONTICELLO     CLEAR     82  59  45 CALM      30.08S
$$




USA.gov is the U.S. government's official web portal to all federal, state and local government web resources and services.